Regional Weather Roundup
Issued by NWS Wakefield, VA

Home | Current Version | Previous Version | Graphics & Text | Print | Product List | Glossary On
Versions: 1 2 3 4 5 6 7 8 9 10 11 12 13 14 15 16 17 18 19 20 21 22 23 24 25 26 27 28 29 30 31 32 33 34 35 36 37 38 39 40 41 42 43 44 45 46 47 48 49 50
000
ASUS41 KAKQ 021410
RWRAKQ

REGIONAL WEATHER ROUNDUP
NATIONAL WEATHER SERVICE WAKEFIELD VA
900 AM EST MON MAR 02 2015

Note: "fair" indicates few or no clouds below 12,000 feet with no
significant weather and/or obstructions to visibility. * = Denotes
station may not report precipitation (e.g., rain,snow,etc.),
thunder or fog.

VAZ042-051-052>054-056-021500-
NORTHERN VIRGINIA

CITY           SKY/WX    TMP DP  RH WIND       PRES   REMARKS
WASH NATIONAL  PTSUNNY   39  31  72 NW10      30.24R
DULLES         PTSUNNY   39  31  72 NW15G24   30.22R
FORT BELVOIR   MOSUNNY   36  35  96 NW2       30.23R
QUANTICO       FOG       33  33 100 CALM      30.23R VSB 1/2
FREDERICKSBRG* CLOUDY    36  36 100 CALM      30.21R FOG
STAFFORD*      FOG       32  32  99 CALM      30.25R VSB<1/4
WARRENTON      MOSUNNY   38  38 100 N10       30.21R
CULPEPER*      MOSUNNY   37  36  93 CALM      30.21R FOG
MANASSAS*      SUNNY     39  37  93 N14       30.22R
LEESBURG*      PTSUNNY   41  32  70 NW20G28   30.23R
WINCHESTER     MOSUNNY   41  23  48 NW26G37   30.22R
FRONT ROYAL*   CLOUDY    39  28  65 W13       30.22R
LURAY*         FAIR      43  30  61 W14G24    30.23R
$$

VAZ048-049-060>072-079>083-021500-
CENTRAL AND SOUTH CENTRAL VIRGINIA

CITY           SKY/WX    TMP DP  RH WIND       PRES   REMARKS
RICHMOND       CLOUDY    40  37  89 N9        30.19R FOG
CHESTERFIELD*  PTSUNNY   39  28  65 W7        30.20R
PETERSBURG*    MOSUNNY   41  40  94 CALM      30.19R
HANOVER        CLOUDY    36  35  96 VRB5      30.22R FOG
TAPPAHANNOCK*  FOG       35  33  91 W3        30.22R VSB 1/2
QUINTON*       CLOUDY    36  35  98 N5        30.20R
CHARLOTTSVILLE SUNNY     50  31  48 NW14G22   30.16R
GORDONSVILLE*  FOG       33  32  99 E3        30.19R VSB<1/4
ORANGE*        CLOUDY    34  34 100 N3        30.21R FOG
LOUISA*        CLOUDY    36  36 100 N6        30.17R FOG
BUMPASS*       CLOUDY    34  33  99 CALM      30.19R VSB 1/4
FARMVILLE*     MOSUNNY   43  43 100 SW7       30.17R FOG
CREWE*         FAIR      42  39  89 W7        30.18R
FORT PICKETT*  FAIR      39  39  98 W8        30.19R
CHASE CITY*    CLOUDY    39  39 100 W5        30.22R VSB<1/4
CLARKSVILLE*   CLOUDY    36  36 100 W5        30.21R VSB 1/2
SOUTH HILL*    CLOUDY    34  34  99 CALM      30.26R VSB 1/2
LAWRENCEVILLE* CLOUDY    34  34 100 W5        30.20R
EMPORIA*       CLOUDY    34  34 100 SW5       30.22R FOG
$$

VAZ088>098-021500-
SOUTHEAST VIRGINIA

CITY           SKY/WX    TMP DP  RH WIND       PRES   REMARKS
NORFOLK        CLOUDY    38  37  97 W6        30.17R FOG
VIRGINIA BEACH CLOUDY   N/A N/A N/A W12       30.16R
NORFOLK NAVAL  CLOUDY    39  35  86 W8        30.19R FOG
WEST POINT*    CLOUDY    38  36  92 N5        30.22R
SALUDA*        CLOUDY    33  32  96 N7        30.21R
NEWPORT NEWS   CLOUDY    38  34  85 W10       30.18R
LANGLEY AFB    PTSUNNY   36  34  94 W9        30.17R
FORT EUSTIS    PTSUNNY   36 N/A N/A NW5       30.17R
WILLIAMSBURG*  PTSUNNY   39  37  93 W6        30.19R
HR EXEC AP*    CLOUDY    37  36  93 W7        30.20R
FRANKLIN*      CLOUDY    37  36  95 SW6       30.20R
WAKEFIELD      PTSUNNY   36  34  92 W5        30.19R
$$

VAZ020-022-025-037-045-021500-
WEST CENTRAL AND SOUTHWEST VIRGINIA

CITY           SKY/WX    TMP DP  RH WIND       PRES   REMARKS
STAUNTON*      SUNNY     44  27  51 N12G18    30.22R
WAYNESBORO*    FAIR      45  29  55 NW9       30.18R
HOT SPRINGS VA CLOUDY    31  28  91 W21G30    30.15R WCI  18
LYNCHBURG      SUNNY     48  36  63 W9        30.20R
DANVILLE       FOG       40  39  97 W6        30.23R VSB 1
SOUTH BOSTON*  CLOUDY    38  37  95 SW5       30.22R VSB 1/2
MARTINSVILLE   PTSUNNY   53  41  63 NW20      30.25R
ROANOKE        CLOUDY    44  30  57 W12G25    30.24R
BLACKSBURG     CLOUDY    37  31  79 NW20G33   30.26R
DUBLIN*        CLOUDY    40  34  78 W7G18     30.29R
MARION*        CLOUDY    38  33  80 W24G33    30.30R
HILLSVILLE*    CLOUDY    40  35  82 W23G33    30.23R
RICHLANDS*     LGT SNOW  32  31  96 NW6       30.35R
WISE*          LGT SNOW  32  32 100 NW10      30.38R WCI  24
ABINGDON*      CLOUDY    39  35  83 N9        30.36R
$$

MDZ021>025-VAZ099-100-021500-
SOUTHERN MARYLAND AND THE DELMARVA PENINSULA

CITY           SKY/WX    TMP DP  RH WIND       PRES   REMARKS
PATUXENT RIVER PTSUNNY   33  31  92 NW6       30.20R FOG
BAY BRIDGE APT   N/A     34  34 100 NW3       30.21R FOG
LEONARDTOWN    CLOUDY    32  32 100 W3        30.22R
DOVER          PTSUNNY   34  34 100 W10       30.17R FOG
GEORGETOWN     CLOUDY    33  31  92 VRB6      30.18R FOG
EASTON         PTSUNNY   34  34 100 CALM      30.23R FOG
CAMBRIDGE      NOT AVBL
SALISBURY      CLOUDY    36  33  89 W6        30.17R FOG
OCEAN CITY     CLOUDY    33  32  96 W7        30.17R FOG
WALLOPS ISLAND CLOUDY    33  33 100 W5        30.18R FOG
ACCOMACK*      FOG       34  32  93 NW7       30.20R VSB 1
$$

NCZ012>017-030>032-021500-
NORTH CENTRAL AND EASTERN NORTH CAROLINA

CITY           SKY/WX    TMP DP  RH WIND       PRES   REMARKS
ROANOKE RAPIDS CLOUDY    36  36 100 W7        30.22R FOG
RALEIGH        FOG       39  37  92 W6        30.23R VSB 1/8
ELIZABETH CITY CLOUDY    41  40  96 W7        30.18R
AHOSKIE*       CLOUDY    38  38  98 CALM      30.21R FOG
EDENTON*       CLOUDY    40  40  99 W6        30.19R FOG
CURRITUCK*     CLOUDY    39  38  97 SW8       30.18R FOG
KILL DEVIL HLS RAIN      41  41 100 W7        30.16R
MANTEO         LGT RAIN  43  43 100 W6        30.18R
CAPE HATTERAS  FOG       44  44 100 W10G17    30.21S VSB 1/4
TARBORO*       CLOUDY    42  41  97 W8        30.22R FOG
GOLDSBORO      CLOUDY    44  44 100 SW12      30.20R
WASHINGTON     CLOUDY    43  42  97 W6        30.20S FOG
GREENVILLE     CLOUDY    43  43 100 W6        30.22R FOG
NEW BERN       CLOUDY    47  45  93 W8        30.23S
WILMINGTON     CLOUDY    47  47 100 W8        30.25R FOG
$$

VAZ048-021500-
ELSEWHERE

CITY           SKY/WX    TMP DP  RH WIND       PRES   REMARKS
HARRISBURG PA  PTSUNNY   34  22  61 NW22G33   30.21R WCI  22
BALTIMORE      MOSUNNY   35  31  85 SW6       30.20R
ANNAPOLIS      MOSUNNY   34  31  88 NW8       30.21R FOG
ANDREWS AFB    MIX PCPN  36  36 100 NW2       30.21R
PHILADELPHIA   PTSUNNY   37  30  75 NW12      30.17R
HENDERSON NC   FOG       38  37  96 SW3       30.21R VSB 3/4
GREENSBORO     FOG       40  40 100 NW6       30.22R VSB 3/4
ROCKY MOUNT    CLOUDY    42  41  96 W7        30.21R FOG
$$

VAZ100-021500-
MARINE

STATION/POSITION TIME  TEMP    WIND        PRES    WAVE   SWELL
                       AIR SEA DIR/SP/G            HT/PER HT/PER
                 (UTC) (F)     (DEG/KT/KT) (MB)    (FT/S) (FT/S)
BRANDYWINE LGT   1400   32 30              1021.3S
CAPE MAY NJ      1400   31 33              1021.0R
LEWES DE         1400   32 30              1021.4R
15NM E FENWICK I 1400   33 35              1020.3R   2/ 7
OCEAN-CITY-INLET 1400   34 32              1020.4R
WACHAPREAGUE VA  1400   34 33  320/  3/  9 1022.5R
THOMAS POINT MD  1400   35 31   CALM  /  7 1024.0R
COVE POINT MD    1400   33                 1022.4R
SOLOMONS ISLAND  1400      32                N/A
BISHOPS HEAD MD  1400   32 31              1021.8R
CAMBRIDGE MD     1400   33 32              1022.3R
LEWISETTA VA     1400      32              1022.5S
RAPPAHANNOCK LGT 1400          340/ 11/ 12 1023.0R
STINGRAY PT      1400   33      10/ 10/ 12   N/A
YORK RVR RNG VA  1400   35     350/  8/  9 1021.6R
YORKTOWN VA      1400   36 33  270/  9/ 13 1021.5R
DOMINION TERM VA 1400   35     290/  9/ 11 1021.7R
KIPTOPEKE VA     1400      36  310/  8/ 10   N/A
CHES BAY BRIDGE  1400   35 33  230/ 11/ 12 1020.9R
CAPE HENRY VA    1400   37     260/  9/ 13 1020.0R
CHESAPEAKE LGHT  1300   35     230/ 14/ 15 1020.8S
WILLOUBY STN VA  1400          260/ 11/ 12 1022.0R
S CRANEY ISL VA  1400          300/  3/  5 1021.8R
CAPE HENRY BUOY  1400      35                N/A     3/ 7
1ST LANDING BUOY 1400   35     250/ 10/ 14 1020.8R
OFFSHORE WE BUOY 1400      36                N/A     3/ 7   3/ 7
64NM E OF VA BCH 1400   43 51  260/ 17/ 21 1020.4R   5/ 8   3/ 8
DUCK PIER NC     1400   39 34  260/ 15/ 16 1021.0R
44100 DUCK FRF   1400      37                N/A     3/ 7
44056 DUCK FRF   1400                        N/A     3/ 6
OREGON INLET NC  1400   41 42  240/  5/  6 1021.9R
HATTERAS NC      1400   43 42  260/  8/ 11 1023.1S
CAPE LOOKOUT NC  1300   46     260/  9/ 11 1023.4R
$$


USA.gov is the U.S. government's official web portal to all federal, state and local government web resources and services.